C2702 KPIE-KLAL

Flight info

Callsign C2702
Flight time 0h 13m
Altitude 8000
Route VFR
Aircraft C27J/M-V/N

Departure

Time 2026-04-22 01:44
Airport St. Petersburg Clearwater International Airport (KPIE)

Arrival

Time 2026-04-22 01:57
Airport Lakeland Linder International Airport (KLAL)
Time Latitude Longitude Altitude Speed Heading
2026-04-22 01:30 27.91450 -82.69278 20 ft 0 kts 111°
2026-04-22 01:34 27.91445 -82.69264 19 ft 12 kts 111°
2026-04-22 01:34 27.91431 -82.69223 19 ft 3 kts 111°
2026-04-22 01:34 27.91420 -82.69188 18 ft 8 kts 110°
2026-04-22 01:35 27.91413 -82.69165 17 ft 4 kts 108°
2026-04-22 01:35 27.91411 -82.69160 17 ft 0 kts 107°
2026-04-22 01:35 27.91410 -82.69154 17 ft 3 kts 107°
2026-04-22 01:36 27.91408 -82.69148 17 ft 0 kts 106°
2026-04-22 01:36 27.91408 -82.69147 17 ft 1 kts 106°
2026-04-22 01:36 27.91405 -82.69137 17 ft 5 kts 106°
2026-04-22 01:36 27.91392 -82.69085 16 ft 5 kts 106°
2026-04-22 01:37 27.91369 -82.69060 16 ft 0 kts 117°
2026-04-22 01:37 27.91073 -82.69012 14 ft 4 kts 172°
2026-04-22 01:37 27.91016 -82.69003 15 ft 13 kts 172°
2026-04-22 01:37 27.90910 -82.68985 18 ft 19 kts 172°
2026-04-22 01:38 27.90758 -82.68961 19 ft 26 kts 172°
2026-04-22 01:38 27.90558 -82.68928 20 ft 32 kts 172°
2026-04-22 01:38 27.90350 -82.68888 19 ft 26 kts 166°
2026-04-22 01:38 27.90244 -82.68865 19 ft 0 kts 172°
2026-04-22 01:39 27.91450 -82.69278 19 ft 0 kts 111°
2026-04-22 01:39 27.91447 -82.69260 19 ft 6 kts 102°
2026-04-22 01:40 27.91441 -82.69232 19 ft 1 kts 101°
2026-04-22 01:40 27.91439 -82.69219 19 ft 4 kts 101°
2026-04-22 01:40 27.91450 -82.69278 19 ft 0 kts 111°
2026-04-22 01:40 27.91450 -82.69273 20 ft 2 kts 83°
2026-04-22 01:41 27.91456 -82.69191 18 ft 14 kts 113°
2026-04-22 01:41 27.91401 -82.69075 16 ft 19 kts 148°
2026-04-22 01:41 27.91258 -82.69043 17 ft 23 kts 171°
2026-04-22 01:41 27.91072 -82.69002 14 ft 30 kts 178°
2026-04-22 01:42 27.90850 -82.68980 19 ft 34 kts 172°
2026-04-22 01:42 27.90602 -82.68936 20 ft 38 kts 168°
2026-04-22 01:42 27.90326 -82.68886 19 ft 42 kts 171°
2026-04-22 01:42 27.90206 -82.68866 19 ft 22 kts 174°
2026-04-22 01:43 27.90090 -82.68779 15 ft 14 kts 40°
2026-04-22 01:43 27.90250 -82.68683 19 ft 55 kts 41°
2026-04-22 01:43 27.90727 -82.68230 21 ft 119 kts 39°
2026-04-22 01:43 27.91461 -82.67556 202 ft 158 kts 39°
2026-04-22 01:44 27.92465 -82.66622 97 ft 216 kts 39°
2026-04-22 01:44 27.93397 -82.65364 871 ft 210 kts 89°
2026-04-22 01:44 27.92622 -82.63922 1001 ft 239 kts 135°
2026-04-22 01:44 27.91336 -82.62567 1107 ft 256 kts 139°
2026-04-22 01:45 27.89988 -82.61250 1454 ft 261 kts 138°
2026-04-22 01:45 27.88802 -82.59582 1159 ft 285 kts 122°
2026-04-22 01:45 27.87868 -82.57555 989 ft 291 kts 114°
2026-04-22 01:45 27.87148 -82.55468 1403 ft 278 kts 111°
2026-04-22 01:46 27.86472 -82.53490 1909 ft 270 kts 111°
2026-04-22 01:46 27.85773 -82.51468 2016 ft 279 kts 112°
2026-04-22 01:46 27.85094 -82.49384 2039 ft 285 kts 108°
2026-04-22 01:46 27.84556 -82.47243 2057 ft 289 kts 103°
2026-04-22 01:47 27.84560 -82.44997 2047 ft 291 kts 70°
2026-04-22 01:47 27.85793 -82.43419 2048 ft 248 kts 24°
2026-04-22 01:47 27.87306 -82.43130 2053 ft 199 kts 359°
2026-04-22 01:47 27.88567 -82.43038 2019 ft 168 kts 17°
2026-04-22 01:48 27.89368 -82.42299 2043 ft 144 kts 59°
2026-04-22 01:48 27.89765 -82.41310 2081 ft 149 kts 70°
2026-04-22 01:48 27.90144 -82.39981 2130 ft 206 kts 73°
2026-04-22 01:48 27.90577 -82.38250 2072 ft 247 kts 75°
2026-04-22 01:49 27.91036 -82.36283 2071 ft 269 kts 76°
2026-04-22 01:49 27.91513 -82.34179 2070 ft 281 kts 76°
2026-04-22 01:49 27.91997 -82.32004 2068 ft 288 kts 76°
2026-04-22 01:49 27.92482 -82.29791 2069 ft 292 kts 76°
2026-04-22 01:50 27.92968 -82.27555 2068 ft 294 kts 76°
2026-04-22 01:50 27.93459 -82.25309 2068 ft 295 kts 76°
2026-04-22 01:50 27.93956 -82.23056 2068 ft 292 kts 76°
2026-04-22 01:50 27.94389 -82.21088 2046 ft 229 kts 77°
2026-04-22 01:51 27.94723 -82.19500 2048 ft 188 kts 77°
2026-04-22 01:51 27.95026 -82.18041 2058 ft 196 kts 77°
2026-04-22 01:51 27.95410 -82.16557 2059 ft 202 kts 68°
2026-04-22 01:51 27.96180 -82.15236 2143 ft 201 kts 47°
2026-04-22 01:52 27.97372 -82.14438 2272 ft 200 kts 26°
2026-04-22 01:52 27.98780 -82.13991 2358 ft 227 kts 20°
2026-04-22 01:52 28.00444 -82.13596 2125 ft 263 kts
2026-04-22 01:52 28.02247 -82.14221 2249 ft 285 kts 326°
2026-04-22 01:53 28.03344 -82.16112 2274 ft 302 kts 285°
2026-04-22 01:53 28.03318 -82.18526 1872 ft 313 kts 255°
2026-04-22 01:53 28.02085 -82.20505 1388 ft 313 kts 208°
2026-04-22 01:53 28.00063 -82.20815 1413 ft 287 kts 161°
2026-04-22 01:54 27.98500 -82.19601 1481 ft 270 kts 118°
2026-04-22 01:54 27.97988 -82.17723 2308 ft 238 kts 96°
2026-04-22 01:54 27.98390 -82.15868 2083 ft 255 kts 64°
2026-04-22 01:54 27.98784 -82.14210 2037 ft 190 kts 88°
2026-04-22 01:55 27.98779 -82.12877 1693 ft 148 kts 90°
2026-04-22 01:55 27.98767 -82.11771 1419 ft 140 kts 90°
2026-04-22 01:55 27.98746 -82.10674 1176 ft 137 kts 89°
2026-04-22 01:55 27.98790 -82.09609 1030 ft 136 kts 85°
2026-04-22 01:56 27.98834 -82.08552 934 ft 133 kts 85°
2026-04-22 01:56 27.98858 -82.07499 676 ft 136 kts 90°
2026-04-22 01:56 27.98882 -82.06430 438 ft 135 kts 88°
2026-04-22 01:56 27.98906 -82.05392 408 ft 127 kts 86°
2026-04-22 01:57 27.98921 -82.04404 361 ft 124 kts 90°
2026-04-22 01:57 27.98933 -82.03463 214 ft 122 kts 91°
2026-04-22 01:57 27.98931 -82.02543 149 ft 110 kts 89°
2026-04-22 01:57 27.98931 -82.02100 141 ft 0 kts 93°
2026-04-22 01:58 27.98926 -82.01856 145 ft 29 kts 91°
2026-04-22 01:58 27.98938 -82.01551 142 ft 48 kts 76°
2026-04-22 01:58 27.98987 -82.01264 144 ft 25 kts 84°